Starlink 32623

operational
NORAD ID: 62152 Int'l Des: 2024-224 Owner: SPXS Country: US Constellation: starlink
LEOCIRCULAR

Starlink 32623について

説明を読み込み中...

リアルタイム位置

3D地球を読み込み中...

次回通過

高度履歴

Altitude vs Time

uPlot chart will show altitude changes over time

軌道要素

1 62152U 24224P 25304.76017223 .00032767 00000-0 11957-2 0 9992
2 62152 43.0032 169.5434 0001256 250.4235 109.6481 15.27558432 52667
Epoch: Oct 31, 2025 • Age: 9 hours

現在のステータス

高度 482.5 km
速度 7.63 km/s
衛星直下点 11.12°N, 82.76°E
打ち上げ日 Nov 30, 2024
運用期間 0.9 years
タイプ internet

技術仕様

分類 Payload
質量 730.00 kg
乾燥質量 700.00 kg
総質量 730.00 kg
長さ 0.30 m
直径 4.10 m
スパン 29.00 m
形状 Box + pan
製造者 SPXS
バスタイプ Starlink V2M
フェーズステータス In Orbit
所有者/国 SPXS/US

大規模コンステレーション

Loading constellations...